sat.trackr.live / text

‹ back to catalog

STARLINK-5367

NORAD 55501 · 2023-015BE

PAYLOAD ACTIVE UNKNOWN

§ Identity

Operator
Country
US
Launch date
2023-02-02
Launch site
AFETR
Launch vehicle
Mass (kg)
RCS (m²)

Purposes: comms

External: N2YO · Heavens-Above · Gunter

§ Orbital elements

Epoch: 2026-09-20T15:00:25.678080Z

Period
94.27 min
Inclination
43.0053°
Eccentricity
0.0001707
Mean motion
15.27589358 rev/d
Perigee alt
481.8 km
Apogee alt
484.2 km
Semi-major
6,861.2 km
B*
3.5111e-5
RAAN
319.2060°
Arg perigee
266.7460°
Mean anomaly
93.3197°
Rev number
20,040

§ Raw data

STARLINK-53671 55501U 23015BE  26263.62529720  .00000704  00000+0  35111-4 0  99942 55501  43.0053 319.2060 0001707 266.7460  93.3197 15.27589358200401

JSON: /api/v1/satellites/55501 · /tle

For live sub-satellite position, see the globe view (requires WebGL).

§ Visibility from observer

Set your observer location to see the next 7 days of passes ≥ 10°. The values pass through the URL so the page stays shareable.

No JS? Fill the form by hand. The geolocation button needs JavaScript.